TimeCST,TemperatureF,Dew PointF,Humidity,Sea Level PressureIn,VisibilityMPH,Wind Direction,Wind SpeedMPH,Gust SpeedMPH,PrecipitationIn,Events,Conditions,WindDirDegrees,DateUTC
12:15 AM,1.4,-4.0,78,30.27,4.0,NW,6.9,-,N/A,Snow,Light Snow,310,2013-01-20 06:15:00
12:35 AM,1.4,-2.2,85,30.27,3.0,WNW,5.8,-,0.02,Snow,Light Snow,290,2013-01-20 06:35:00
12:55 AM,1.4,-2.2,85,30.27,5.0,WNW,6.9,-,0.03,Snow,Light Snow,300,2013-01-20 06:55:00
1:15 AM,1.4,-2.2,85,30.27,4.0,West,6.9,-,N/A,Snow,Light Snow,280,2013-01-20 07:15:00
1:35 AM,1.4,-2.2,85,30.27,4.0,West,6.9,-,0.01,Snow,Light Snow,280,2013-01-20 07:35:00
1:55 AM,1.4,-2.2,85,30.27,5.0,West,9.2,-,0.02,Snow,Light Snow,270,2013-01-20 07:55:00
2:15 AM,3.2,-0.4,85,30.27,5.0,West,9.2,-,N/A,Snow,Light Snow,270,2013-01-20 08:15:00
2:35 AM,3.2,-0.4,85,30.29,4.0,West,11.5,-,0.02,Snow,Light Snow,280,2013-01-20 08:35:00
2:55 AM,3.2,-0.4,85,30.29,5.0,West,11.5,-,0.03,Snow,Light Snow,270,2013-01-20 08:55:00
3:15 AM,1.4,-2.2,85,30.31,10.0,West,9.2,-,N/A,Snow,Light Snow,280,2013-01-20 09:15:00
3:35 AM,1.4,-2.2,85,30.32,7.0,WNW,10.4,-,N/A,Snow,Light Snow,290,2013-01-20 09:35:00
3:55 AM,1.4,-0.4,92,30.32,7.0,WNW,13.8,-,0.01,Snow,Light Snow,290,2013-01-20 09:55:00
4:15 AM,3.2,-0.4,85,30.33,5.0,WNW,13.8,-,0.01,Snow,Light Snow,300,2013-01-20 10:15:00
4:35 AM,3.2,-0.4,85,30.34,5.0,NW,20.7,26.5,0.02,Snow,Light Snow,320,2013-01-20 10:35:00
4:55 AM,3.2,-0.4,85,30.36,5.0,NW,20.7,27.6,0.03,Snow,Light Snow,320,2013-01-20 10:55:00
5:15 AM,1.4,-2.2,85,30.36,1.2,NW,26.5,33.4,0.01,Snow,Light Snow,320,2013-01-20 11:15:00
5:35 AM,1.4,-2.2,85,30.37,2.0,NW,26.5,31.1,0.02,Rain,Freezing Rain,320,2013-01-20 11:35:00
5:55 AM,-0.4,-5.8,78,30.38,3.0,NNW,19.6,29.9,0.02,,Haze,330,2013-01-20 11:55:00
6:15 AM,-2.2,-7.6,78,30.41,2.5,NNW,25.3,31.1,N/A,Rain,Freezing Rain,330,2013-01-20 12:15:00
6:35 AM,-4.0,-9.4,78,30.41,1.8,NNW,29.9,33.4,N/A,,Haze,330,2013-01-20 12:35:00
6:55 AM,-5.8,-11.2,77,30.43,1.5,NW,23.0,34.5,N/A,Rain,Freezing Rain,320,2013-01-20 12:55:00
7:15 AM,-7.6,-13.0,77,30.44,3.0,NNW,23.0,31.1,N/A,,Haze,330,2013-01-20 13:15:00
7:35 AM,-7.6,-13.0,77,30.45,7.0,NNW,21.9,29.9,N/A,,Overcast,330,2013-01-20 13:35:00
7:55 AM,-9.4,-14.8,77,30.46,5.0,NW,19.6,31.1,N/A,,Haze,320,2013-01-20 13:55:00
8:15 AM,-9.4,-14.8,77,30.46,7.0,NW,21.9,27.6,N/A,,Overcast,320,2013-01-20 14:15:00
8:35 AM,-11.2,-16.6,77,30.48,5.0,NW,23.0,31.1,N/A,,Haze,320,2013-01-20 14:35:00
8:55 AM,-11.2,-16.6,77,30.49,5.0,NW,21.9,27.6,N/A,,Haze,310,2013-01-20 14:55:00
9:15 AM,-11.2,-16.6,77,30.49,2.5,NW,21.9,32.2,N/A,,Haze,320,2013-01-20 15:15:00
9:35 AM,-11.2,-18.4,70,30.50,6.0,NW,20.7,-,N/A,,Haze,310,2013-01-20 15:35:00
9:55 AM,-11.2,-18.4,70,30.52,6.0,NW,18.4,-,N/A,,Haze,320,2013-01-20 15:55:00
10:15 AM,-11.2,-18.4,70,30.51,9.0,NW,18.4,26.5,N/A,,Overcast,310,2013-01-20 16:15:00
10:35 AM,-11.2,-18.4,70,30.52,10.0,NW,25.3,28.8,N/A,,Overcast,320,2013-01-20 16:35:00
10:55 AM,-11.2,-18.4,70,30.53,10.0,NW,21.9,29.9,N/A,,Overcast,320,2013-01-20 16:55:00
11:15 AM,-11.2,-18.4,70,30.52,10.0,NW,24.2,29.9,N/A,,Scattered Clouds,320,2013-01-20 17:15:00
11:35 AM,-11.2,-18.4,70,30.53,10.0,NW,24.2,28.8,N/A,,Partly Cloudy,310,2013-01-20 17:35:00
11:55 AM,-11.2,-20.2,64,30.53,10.0,NW,27.6,33.4,N/A,,Clear,320,2013-01-20 17:55:00
12:15 PM,-11.2,-20.2,64,30.52,10.0,NW,24.2,32.2,N/A,,Clear,320,2013-01-20 18:15:00
12:35 PM,-11.2,-20.2,64,30.50,10.0,NW,23.0,32.2,N/A,,Clear,320,2013-01-20 18:35:00
12:55 PM,-11.2,-20.2,64,30.50,10.0,NW,20.7,25.3,N/A,,Clear,310,2013-01-20 18:55:00
1:15 PM,-9.4,-18.4,65,30.49,10.0,NW,26.5,32.2,N/A,,Clear,310,2013-01-20 19:15:00
1:35 PM,-9.4,-20.2,59,30.48,10.0,NW,25.3,32.2,N/A,,Clear,320,2013-01-20 19:35:00
1:55 PM,-9.4,-20.2,59,30.47,10.0,NW,20.7,28.8,N/A,,Clear,320,2013-01-20 19:55:00
2:15 PM,-9.4,-18.4,65,30.47,10.0,NW,19.6,-,N/A,,Clear,310,2013-01-20 20:15:00
2:35 PM,-9.4,-18.4,65,30.45,10.0,NW,27.6,33.4,N/A,,Clear,310,2013-01-20 20:35:00
2:55 PM,-7.6,-18.4,59,30.45,10.0,NW,25.3,31.1,N/A,,Clear,310,2013-01-20 20:55:00
3:15 PM,-7.6,-18.4,59,30.45,4.0,NW,26.5,36.8,N/A,,Haze,310,2013-01-20 21:15:00
3:35 PM,-7.6,-16.6,65,30.45,5.0,NW,26.5,36.8,N/A,,Haze,320,2013-01-20 21:35:00
3:55 PM,-7.6,-16.6,65,30.44,9.0,NW,29.9,35.7,N/A,,Clear,320,2013-01-20 21:55:00
4:15 PM,-7.6,-18.4,59,30.43,10.0,NW,26.5,35.7,N/A,,Clear,320,2013-01-20 22:15:00
4:35 PM,-9.4,-16.6,71,30.43,10.0,NW,27.6,33.4,N/A,,Clear,320,2013-01-20 22:35:00
4:55 PM,-9.4,-18.4,65,30.43,10.0,NW,26.5,32.2,N/A,,Clear,310,2013-01-20 22:55:00
5:15 PM,-9.4,-18.4,65,30.43,10.0,NW,21.9,26.5,N/A,,Clear,310,2013-01-20 23:15:00
5:35 PM,-9.4,-18.4,65,30.43,10.0,NW,17.3,-,N/A,,Clear,310,2013-01-20 23:35:00
5:55 PM,-11.2,-18.4,70,30.44,10.0,WNW,13.8,-,N/A,,Clear,300,2013-01-20 23:55:00
6:15 PM,-11.2,-18.4,70,30.43,10.0,NW,11.5,-,N/A,,Clear,310,2013-01-21 00:15:00
6:35 PM,-13.0,-20.2,70,30.44,10.0,NW,11.5,-,N/A,,Clear,320,2013-01-21 00:35:00
7:15 PM,-13.0,-20.2,70,30.45,10.0,WNW,6.9,-,N/A,,Overcast,290,2013-01-21 01:15:00
7:35 PM,-13.0,-20.2,70,30.44,10.0,NW,12.7,-,N/A,,Overcast,310,2013-01-21 01:35:00
7:55 PM,-16.6,-22.0,76,30.44,10.0,West,4.6,-,N/A,,Mostly Cloudy,270,2013-01-21 01:55:00
8:15 PM,-16.6,-22.0,76,30.44,-9999.0,WNW,10.4,-,N/A,,Clear,290,2013-01-21 02:15:00
8:35 PM,-16.6,-22.0,76,30.44,-9999.0,West,9.2,-,N/A,,Clear,280,2013-01-21 02:35:00
8:55 PM,-14.8,-22.0,70,30.43,10.0,West,10.4,-,N/A,,Clear,280,2013-01-21 02:55:00
9:15 PM,-14.8,-22.0,70,30.43,10.0,WNW,11.5,-,N/A,,Clear,290,2013-01-21 03:15:00
9:35 PM,-14.8,-22.0,70,30.43,10.0,West,12.7,-,N/A,,Clear,280,2013-01-21 03:35:00
9:55 PM,-14.8,-22.0,70,30.43,10.0,WNW,13.8,-,N/A,,Clear,290,2013-01-21 03:55:00
10:15 PM,-14.8,-22.0,70,30.43,10.0,West,13.8,-,N/A,,Clear,280,2013-01-21 04:15:00
10:35 PM,-13.0,-22.0,64,30.42,10.0,WNW,15.0,-,N/A,,Clear,290,2013-01-21 04:35:00
10:55 PM,-14.8,-22.0,70,30.41,10.0,WNW,13.8,-,N/A,,Clear,290,2013-01-21 04:55:00
11:15 PM,-14.8,-22.0,70,30.41,10.0,West,12.7,-,N/A,,Clear,280,2013-01-21 05:15:00
11:35 PM,-14.8,-22.0,70,30.41,10.0,West,12.7,-,N/A,,Clear,280,2013-01-21 05:35:00
11:55 PM,-14.8,-22.0,70,30.41,10.0,West,13.8,-,N/A,,Clear,280,2013-01-21 05:55:00